Vertical_Velocity
1 1 -1 -0 1 1 1 0 -0 0 1 1 1 -1 -0 -1 -1 -1 -0 0 1 1 0 -1 0 1 -0 -0 1 0 1 -1 -0
4 1 1 1 1 2 5 0 1 1 0 1 1 1 0 0 0 1 -0 -0 -0 -0 0 0 0 -0 -1 -0 -0 -0 -1 -0 0
2 4 2 1 1 -1 2 2 1 0 1 1 1 1 -0 0 0 1 1 -0 -0 0 0 0 -0 1 0 -0 -0 -0 0 0 -1
1 -1 0 2 3 3 6 7 1 -0 1 1 1 0 0 1 -0 -0 -1 0 1 0 1 1 1 -0 -0 -0 -1 -0 -0 -0 -0
-1 -0 0 -1 -1 3 4 4 4 1 -0 -1 2 3 1 -1 -1 -0 1 0 -1 -1 0 0 1 0 1 1 1 -0 0 0 0
2 1 1 1 0 1 1 1 2 1 1 0 -1 -0 2 3 0 -1 -1 -0 1 1 -0 -0 -1 0 0 -1 -1 0 -0 0 1
2 2 1 0 2 1 2 2 5 -1 0 0 -1 0 -1 -0 -1 -1 -0 -0 -0 -1 0 1 1 0 0 0 -1 0 0 -0 -0
-2 -1 0 1 3 0 1 2 -1 1 1 -1 -0 0 1 1 -0 -1 -2 -1 -1 -0 -1 -2 -2 -1 -0 0 1 0 -1 -0 -0
-1 -2 -1 -0 2 3 0 1 1 3 1 -2 0 1 0 1 0 0 -0 -0 -1 -1 1 0 -1 -2 -1 -1 -0 -0 1 1 1
-1 -1 2 1 -0 1 1 1 3 0 2 2 -0 -2 -0 0 1 1 -1 0 -0 -0 1 1 0 -1 -1 -1 0 1 -1 -0 0
1 -2 0 0 1 1 -0 1 2 0 -1 -2 1 5 -1 -1 -1 1 1 1 1 0 -0 3 2 1 -1 0 -0 -1 0 0 -0
2 -1 4 4 3 8 -4 2 0 3 0 -1 -1 4 5 4 6 -0 -1 -1 1 2 1 0 1 2 1 2 1 0 -1 -1 0
-1 2 3 0 3 7 11 7 -2 6 1 6 7 9 7 7 1 0 2 1 -1 -1 -1 -2 1 1 2 0 0 1 1 2 1
-1 -0 4 5 3 -8 2 7 -0 12 11 10 5 4 -0 2 0 5 2 1 1 1 0 -2 -1 0 -0 0 0 1 -1 -0 3
4 4 4 4 1 5 -2 -6 2 40 19 10 2 2 1 3 -6 -5 -3 2 1 -1 -1 -2 -0 -0 0 -1 -0 -0 -0 -2 2
6 6 2 1 -1 5 2 -15 30 4 0 -7 2 0 -0 0 2 -4 1 -0 -0 1 3 -2 -2 -1 1 -1 -3 -3 -2 -0 -2
2 5 2 2 3 -1 -1 -2 -10 0 16 12 18 -1 -3 -3 -1 3 2 1 -1 2 2 0 1 1 -1 1 2 1 -2 -2 -1
3 4 2 2 1 1 2 -5 16 -5 8 8 22 4 0 12 1 2 4 2 -0 2 2 -1 1 -1 -2 -2 -1 2 3 1 -1
4 10 7 4 -0 1 3 -1 -3 -7 8 -4 96 24 18 10 3 -3 -1 -13 -1 4 -0 2 1 1 -2 -1 -2 -2 -3 -1 0
6 6 7 4 1 -3 -2 -3 -7 -14 7 0 -11 18 -15 -12 2 0 -3 3 -3 3 -1 -1 1 -2 1 -5 1 -2 -1 -3 -3
Height
3171 3171 3171 3171 3170 3171 3171 3170 3170 3170 3170 3169 3168 3167 3167 3168 3169 3169 3169 3170 3170 3170 3170 3170 3170 3170 3170 3170 3170 3170 3169 3169 3169
3167 3167 3168 3168 3169 3169 3169 3169 3169 3168 3168 3167 3167 3166 3166 3166 3166 3167 3168 3168 3169 3169 3169 3169 3168 3168 3169 3169 3169 3168 3168 3167 3167
3164 3164 3164 3165 3165 3166 3166 3166 3166 3165 3166 3166 3165 3165 3164 3164 3164 3164 3165 3166 3167 3167 3167 3167 3167 3166 3166 3166 3166 3166 3166 3165 3165
3160 3160 3160 3160 3161 3162 3162 3163 3163 3163 3163 3163 3163 3163 3163 3163 3163 3162 3163 3163 3163 3164 3164 3165 3164 3164 3164 3164 3164 3164 3164 3163 3163
3154 3155 3156 3156 3157 3158 3158 3159 3159 3159 3160 3160 3161 3161 3161 3161 3161 3161 3161 3161 3161 3161 3161 3161 3162 3162 3161 3161 3161 3161 3161 3161 3160
3148 3149 3150 3151 3152 3153 3153 3154 3154 3155 3156 3156 3157 3158 3158 3158 3158 3158 3159 3159 3158 3158 3158 3158 3158 3159 3159 3158 3158 3158 3158 3158 3158
3141 3141 3143 3144 3145 3146 3148 3149 3150 3150 3151 3152 3152 3154 3155 3155 3155 3156 3156 3156 3156 3156 3157 3156 3156 3156 3156 3156 3156 3156 3156 3155 3155
3133 3134 3135 3137 3139 3140 3141 3142 3144 3145 3146 3147 3148 3148 3149 3151 3152 3152 3153 3154 3154 3154 3154 3155 3154 3154 3153 3153 3153 3152 3152 3152 3152
3123 3124 3126 3127 3130 3132 3133 3135 3137 3138 3140 3141 3142 3144 3144 3145 3146 3148 3149 3150 3150 3151 3151 3152 3152 3152 3151 3151 3151 3150 3149 3149 3149
3112 3115 3116 3118 3121 3123 3125 3126 3128 3131 3132 3134 3136 3137 3138 3140 3141 3142 3143 3145 3146 3147 3147 3147 3148 3148 3148 3148 3148 3147 3147 3146 3145
3101 3103 3106 3109 3111 3114 3116 3119 3121 3122 3124 3126 3128 3129 3131 3133 3135 3136 3138 3139 3140 3141 3142 3143 3143 3143 3144 3143 3143 3143 3143 3143 3142
3088 3091 3094 3097 3101 3105 3106 3109 3112 3114 3116 3119 3120 3122 3124 3126 3128 3130 3132 3133 3134 3136 3136 3137 3137 3138 3138 3138 3137 3137 3137 3137 3137
3075 3078 3081 3086 3089 3094 3097 3100 3103 3106 3108 3111 3113 3115 3116 3119 3122 3124 3126 3127 3128 3130 3130 3131 3131 3131 3132 3132 3132 3131 3131 3131 3131
3062 3064 3068 3074 3078 3083 3088 3091 3095 3096 3100 3102 3104 3107 3109 3112 3114 3117 3120 3121 3122 3122 3123 3124 3124 3125 3125 3124 3124 3125 3124 3124 3123
3047 3050 3054 3060 3066 3071 3078 3082 3083 3085 3089 3093 3095 3098 3101 3104 3107 3111 3113 3114 3115 3116 3116 3117 3117 3117 3117 3116 3116 3117 3117 3116 3116
3033 3037 3042 3048 3055 3062 3068 3073 3076 3081 3085 3086 3087 3091 3094 3098 3101 3103 3106 3107 3108 3109 3110 3110 3111 3111 3110 3109 3109 3108 3109 3108 3107
3021 3026 3032 3039 3045 3052 3059 3064 3070 3073 3072 3076 3077 3082 3088 3091 3094 3096 3098 3100 3102 3103 3104 3104 3103 3103 3102 3102 3101 3100 3099 3099 3098
3015 3019 3026 3033 3037 3043 3050 3057 3059 3066 3069 3072 3067 3072 3076 3082 3085 3088 3090 3093 3095 3096 3096 3096 3096 3094 3093 3091 3091 3090 3089 3088 3087
3012 3015 3020 3027 3032 3037 3042 3049 3054 3058 3060 3065 3051 3056 3065 3070 3076 3078 3082 3084 3087 3089 3090 3089 3088 3085 3082 3080 3079 3078 3077 3077 3076
3012 3015 3019 3024 3029 3034 3038 3043 3048 3050 3056 3055 3054 3054 3059 3065 3066 3070 3075 3076 3079 3080 3081 3079 3077 3075 3072 3069 3067 3068 3067 3066 3066